This demonstration page uses our WeatherBlox Daily Observations layout. Learn more.

40.92945, -100.16068

Hourly Observations for December 13, 2019

Temp ( °F °C ) Dew Point ( °F °C ) Humidity (%) Winds ( mph kmh ) Pressure ( in mb ) Visibility ( mi km ) Precip ( " mm )
12:15 am 00:15 Partly Cloudy 35 1.4 29 -1.7 80 80 SSE 3 6 29.94 1014 10 16.0934 0 0
12:35 am 00:35 Clear 35 1.4 28 -2 78 78 S 3 6 29.93 1014 10 16.0934 0 0
12:55 am 00:55 Partly Cloudy 35 1.5 29 -1.6 80 80 S 6 9 29.92 1013 10 16.0934 0 0
1:15 am 01:15 Mostly Cloudy 35 1.7 29 -1.8 78 78 S 7 11 29.92 1013 10 16.0934 0 0
1:35 am 01:35 Mostly Cloudy 34 1 29 -1.5 84 84 Calm 29.93 1013 10 16.0934 0 0
1:55 am 01:55 Mostly Cloudy 34 1 29 -1.8 82 82 SW 6 9 29.93 1013 10 16.0934 0 0
2:15 am 02:15 Cloudy 33 0.7 29 -1.7 84 84 S 3 6 29.92 1013 10 16.0934 0 0
2:35 am 02:35 Mostly Cloudy 33 0.4 28 -2 84 84 WSW 3 6 29.92 1013 10 16.0934 0 0
2:55 am 02:55 Mostly Cloudy 32 0 28 -2.2 85 85 S 6 9 29.92 1013 10 16.0934 0 0
3:15 am 03:15 Mostly Cloudy 31 -0.5 28 -2.4 87 87 S 6 9 29.92 1013 10 16.0934 0 0
3:35 am 03:35 Partly Cloudy 29 -1.4 27 -2.8 90 90 S 5 7 29.93 1014 10 16.0934 0 0
3:55 am 03:55 Partly Cloudy 29 -1.5 27 -2.9 90 90 S 5 7 29.93 1014 10 16.0934 0 0
4:15 am 04:15 Partly Cloudy 29 -1.4 27 -3 89 89 SW 3 6 29.93 1014 10 16.0934 0 0
4:35 am 04:35 Cloudy 30 -1.3 27 -2.6 91 91 W 3 6 29.93 1014 10 16.0934 0 0
4:55 am 04:55 Cloudy 31 -0.7 28 -2.4 88 88 W 6 9 29.91 1013 10 16.0934 0 0
5:15 am 05:15 Mostly Cloudy 32 -0.2 28 -2 88 88 WNW 8 13 29.91 1013 10 16.0934 0 0
5:35 am 05:35 Partly Cloudy 29 -1.4 27 -2.9 90 90 WNW 10 17 29.93 1014 10 16.0934 0 0
5:55 am 05:55 Partly Cloudy 31 -0.5 27 -2.6 86 86 WNW 9 15 29.92 1013 10 16.0934 0 0
6:15 am 06:15 Partly Cloudy 30 -1 27 -2.6 89 89 WNW 12 19 29.93 1013 10 16.0934 0 0
6:35 am 06:35 Clear 30 -1 28 -2.5 90 90 WNW 13 20 29.93 1013 10 16.0934 0 0
6:55 am 06:55 Clear 30 -1.1 28 -2.5 90 90 WNW 10 17 29.93 1013 10 16.0934 0 0
7:15 am 07:15 Clear 30 -1 28 -2.5 90 90 WNW 12 19 29.94 1014 10 16.0934 0 0
7:35 am 07:35 Clear 29 -1.7 27 -3 91 91 WNW 9 15 29.94 1014 10 16.0934 0 0
7:55 am 07:55 Sunny 28 -2 26 -3.1 92 92 WNW 8 13 29.95 1014 10 16.0934 0 0
8:15 am 08:15 Sunny 30 -1.2 27 -2.6 90 90 WNW 12 19 29.95 1014 10 16.0934 0 0
8:35 am 08:35 Sunny 31 -0.3 28 -2 88 88 WNW 13 20 29.94 1014 10 16.0934 0 0
8:55 am 08:55 Sunny 32 0 29 -1.5 90 90 NW 12 19 29.95 1014 10 16.0934 0 0
9:15 am 09:15 Sunny 33 0.8 31 -0.8 89 89 NW 13 20 29.94 1014 10 16.0934 0 0
9:35 am 09:35 Sunny 35 1.6 31 -0.3 87 87 NW 9 15 29.92 1013 10 16.0934 0 0
9:55 am 09:55 Sunny 36 2 32 0 87 87 NNW 9 15 29.91 1013 10 16.0934 0 0
10:15 am 10:15 Sunny 36 2.4 32 0 84 84 WNW 14 22 29.92 1013 10 16.0934 0 0
10:35 am 10:35 Sunny 38 3.2 32 0 80 80 NW 12 19 29.93 1013 10 16.0934 0 0
10:55 am 10:55 Sunny 39 3.8 32 0 77 77 WNW 12 19 29.91 1013 10 16.0934 0 0
11:15 am 11:15 Sunny 39 4.1 32 0 75 75 WNW 9 15 29.91 1013 10 16.0934 0 0
11:35 am 11:35 Mostly Cloudy 41 4.8 32 0.1 72 72 WNW 8 13 29.88 1012 10 16.0934 0 0
11:55 am 11:55 Partly Cloudy 43 6.1 33 0.6 68 68 WNW 12 19 29.87 1011 10 16.0934 0 0
12:15 pm 12:15 Mostly Cloudy 43 6.2 33 0.4 67 67 WNW 9 15 29.87 1011 10 16.0934 0 0
12:35 pm 12:35 Cloudy 44 6.6 33 0.3 64 64 NW 9 15 29.85 1011 10 16.0934 0 0
12:55 pm 12:55 Cloudy 45 7 33 0.4 63 63 WNW 10 17 29.85 1011 10 16.0934 0 0
1:15 pm 13:15 Cloudy 44 6.6 33 0.4 65 65 W 17 28 29.86 1011 10 16.0934 0 0
1:35 pm 13:35 Cloudy 44 6.7 32 0 63 63 W 14 22 29.85 1011 10 16.0934 0 0
1:55 pm 13:55 Cloudy 45 7 32 0 61 61 W 10 17 29.85 1011 10 16.0934 0 0
2:15 pm 14:15 Cloudy 45 7 32 0 61 61 WNW 6 9 29.84 1010 10 16.0934 0 0
2:35 pm 14:35 Cloudy 44 6.7 32 0 63 63 WNW 7 11 29.85 1011 10 16.0934 0 0
2:55 pm 14:55 Cloudy 44 6.6 33 0.5 65 65 WNW 3 6 29.84 1011 10 16.0934 0 0
3:15 pm 15:15 Cloudy 44 6.7 33 0.7 66 66 Calm 29.84 1011 10 16.0934 0 0
3:35 pm 15:35 Cloudy 43 6.3 34 1.2 70 70 NW 7 11 29.86 1011 10 16.0934 0 0
3:55 pm 15:55 Cloudy 42 5.8 34 1.3 73 73 WNW 7 11 29.87 1012 10 16.0934 0 0
4:15 pm 16:15 Cloudy 42 5.8 34 1.3 73 73 W 7 11 29.87 1012 10 16.0934 0 0
4:35 pm 16:35 Cloudy 42 5.3 35 1.5 77 77 NW 6 9 29.89 1012 10 16.0934 0 0
4:55 pm 16:55 Cloudy 40 4.6 34 1.2 79 79 NW 6 9 29.9 1013 10 16.0934 0 0
5:15 pm 17:15 Cloudy 39 4 33 0.7 79 79 NNW 3 6 29.91 1013 10 16.0934 0 0
5:35 pm 17:35 Cloudy 38 3.1 33 0.3 82 82 NW 7 11 29.93 1013 10 16.0934 0 0
5:55 pm 17:55 Cloudy 38 3.6 33 0.5 80 80 NNW 6 9 29.92 1013 10 16.0934 0 0
6:15 pm 18:15 Cloudy 37 3 33 0.3 83 83 NW 8 13 29.95 1014 10 16.0934 0 0
6:35 pm 18:35 Cloudy 40 4.5 34 0.9 78 78 NW 12 19 29.93 1014 10 16.0934 0 0
6:55 pm 18:55 Cloudy 39 4 34 1 81 81 NW 13 20 29.95 1014 10 16.0934 0 0
7:15 pm 19:15 Cloudy 39 4.1 33 0.3 77 77 NNW 17 28 29.96 1014 10 16.0934 0 0
7:35 pm 19:35 Mostly Cloudy 37 3 32 0 81 81 N 17 28 29.99 1015 10 16.0934 0 0
7:55 pm 19:55 Mostly Cloudy 37 2.7 32 0 83 83 N 16 26 29.99 1016 10 16.0934 0 0
8:15 pm 20:15 Cloudy 36 2.4 32 0 84 84 NNW 10 17 30 1016 10 16.0934 0 0
8:35 pm 20:35 Cloudy 35 1.5 31 -0.5 87 87 NNW 8 13 30.01 1016 10 16.0934 0 0
8:55 pm 20:55 Partly Cloudy 32 0.2 30 -1.1 91 91 NW 8 13 30.02 1017 10 16.0934 0 0
9:15 pm 21:15 Mostly Cloudy 34 0.9 30 -0.9 88 88 NNW 8 13 30.02 1017 10 16.0934 0 0
9:35 pm 21:35 Cloudy 33 0.7 30 -0.9 89 89 NW 8 13 30.02 1017 10 16.0934 0 0
9:55 pm 21:55 Cloudy 34 1 31 -0.5 90 90 WNW 7 11 30.02 1016 10 16.0934 0 0
10:15 pm 22:15 Cloudy 34 1.3 32 -0.2 90 90 NW 9 15 30.01 1016 10 16.0934 0 0
10:35 pm 22:35 Cloudy 34 0.9 32 -0.2 92 92 NW 8 13 30.01 1016 10 16.0934 0 0
10:55 pm 22:55 Cloudy 33 0.7 32 0 95 95 NW 7 11 30.02 1017 10 16.0934 0 0
11:15 pm 23:15 Cloudy 33 0.6 32 0 96 96 WNW 6 9 30.02 1017 10 16.0934 0 0
11:35 pm 23:35 Cloudy 32 0.2 32 -0.2 97 97 NW 7 11 30.02 1017 10 16.0934 0 0
11:55 pm 23:55 Cloudy 32 0 31 -0.5 96 96 NW 8 13 30.04 1017 10 16.0934 0 0

Powered by AerisWeather